RYR891 EIKN-EGPH

Flight info

Callsign RYR891
Flight time N/A
Altitude 31000
Route DCT CON DCT OLAPO DCT ROTEV DCT GOTNA DCT BLACA/N0437F250 P600 TUNSO TUNSO1E
Aircraft B38M/M-SDE1FGHILORVWXY/HB1

Departure

Time 2026-04-30 18:54
Airport Ireland West Airport Knock (EIKN)

Arrival

Time N/A
Airport Edinburgh Airport (EGPH)
Time Latitude Longitude Altitude Speed Heading
2026-04-30 18:36 53.91219 -8.82625 625 ft 0 kts 265°
2026-04-30 18:48 53.91219 -8.82626 625 ft 1 kts 262°
2026-04-30 18:49 53.91217 -8.82630 624 ft 0 kts 232°
2026-04-30 18:49 53.91214 -8.82632 479 ft 1 kts 217°
2026-04-30 18:49 53.91204 -8.82633 425 ft 1 kts 172°
2026-04-30 18:49 53.91197 -8.82626 779 ft 2 kts 149°
2026-04-30 18:50 53.91195 -8.82623 759 ft 2 kts 146°
2026-04-30 18:51 53.91191 -8.82616 723 ft 3 kts 133°
2026-04-30 18:51 53.91142 -8.82563 621 ft 15 kts 166°
2026-04-30 18:51 53.91016 -8.82513 622 ft 21 kts 157°
2026-04-30 18:51 53.90980 -8.82258 628 ft 29 kts 79°
2026-04-30 18:52 53.91028 -8.81875 633 ft 38 kts 78°
2026-04-30 18:52 53.91086 -8.81389 643 ft 46 kts 78°
2026-04-30 18:52 53.91152 -8.80841 660 ft 48 kts 78°
2026-04-30 18:52 53.91216 -8.80273 671 ft 48 kts 78°
2026-04-30 18:53 53.91246 -8.80107 672 ft 1 kts 180°
2026-04-30 18:53 53.91231 -8.80149 672 ft 11 kts 250°
2026-04-30 18:53 53.91165 -8.80705 663 ft 91 kts 259°
2026-04-30 18:53 53.90989 -8.82190 629 ft 162 kts 258°
2026-04-30 18:54 53.90742 -8.84275 1037 ft 191 kts 258°
2026-04-30 18:54 53.90147 -8.86227 1970 ft 193 kts 215°
2026-04-30 18:54 53.89081 -8.86780 2731 ft 191 kts 178°